Regional Weather Roundup
Issued by NWS

Home | Current Version | Previous Version | Graphics & Text | Print | Product List | Glossary On
Versions: 1 2 3 4 5 6 7 8 9 10 11 12 13 14 15 16 17 18 19 20 21 22 23 24 25 26 27 28 29 30 31 32 33 34 35 36 37 38 39 40 41 42 43 44 45 46 47 48 49 50
000
ASUS43 KDMX 071101
RWRIA

WEATHER ROUNDUP FOR IOWA
NATIONAL WEATHER SERVICE DES MOINES IA
500 AM CST WED DEC 07 2016

NOTE: "FAIR" INDICATES FEW OR NO CLOUDS BELOW 12,000 FEET WITH NO
SIGNIFICANT WEATHER AND/OR OBSTRUCTIONS TO VISIBILITY.

* - THESE STATIONS ARE NOT NWS STATIONS...THUS NOT UNDER NWS
QUALITY CONTROL.  THEY ALSO DO NOT REPORT WEATHER SUCH
AS PRECIPITATION OR FOG.

IAZ001>003-012>014-020>022-031>034-043>046-071200-
   NORTHWEST IOWA

CITY           SKY/WX    TMP DP  RH WIND       PRES   REMARKS
CARROLL *      CLEAR     16  10  79 W17       30.16R WCI   0
CHEROKEE *     CLEAR     12   6  78 W8G17     30.17R WCI   0
DENISON *      CLOUDY    14   9  79 VRB7      30.16F WCI   4
LE MARS *      PTCLDY    12   7  79 W14G20    30.19S WCI  -3
ORANGE CITY *  CLOUDY    10   5  79 W25       30.13S WCI -10
SHELDON *      PTCLDY    10   5  79 W18G25    30.11S WCI  -8
SIOUX CITY     CLOUDY    15   7  70 NW8       30.22R WCI   4
SPENCER        CLEAR     11   5  77 W26       30.11R WCI -10
STORM LAKE *   FLURRIES  12   7  79 W20G26    30.13R WCI  -6
$$

IAZ055>058-069>071-079>083-090>094-071200-
   SOUTHWEST IOWA

CITY           SKY/WX    TMP DP  RH WIND       PRES   REMARKS
ATLANTIC *     PTCLDY    18  10  73 NW9       30.19R WCI   6
AUDUBON *      PTCLDY    16   9  73 NW3       30.17R
CLARINDA *     CLOUDY    21  12  68 N12G17    30.21S WCI   9
COUNCIL BLFS * PTCLDY    16   9  73 NW10      30.20S WCI   3
CRESTON *      CLOUDY    19  10  68 NW14      30.17R WCI   6
HARLAN  *      CLOUDY    16  10  79 NW15      30.22R WCI   1
LAMONI         CLOUDY    23  13  65 NW12      30.15S WCI  12
RED OAK *      CLOUDY    19  10  68 NW14      30.21S WCI   6
SHENANDOAH *   CLOUDY    21  12  68 N8        30.21S WCI  12
$$

IAZ047>049-059>061-072>074-084-071200-
   CENTRAL IOWA

CITY           SKY/WX    TMP DP  RH WIND       PRES   REMARKS
AMES           PTCLDY    17  12  80 W16       30.15R WCI   2
ANKENY *       CLOUDY    19  10  68 W15       30.17R WCI   5
BOONE *        PTCLDY    16   9  73 W15G25    30.13R WCI   1
CHARITON *       N/A     21  14  73 W10       30.16R WCI  10
DES MOINES     MOCLDY    20  10  65 NW10      30.16R WCI   9
GRINNELL*      CLOUDY    19  13  77 W14       30.13R WCI   6
KNOXVILLE *    CLOUDY    21  12  68 NW13      30.14R WCI   9
MARSHALLTOWN   CLOUDY    18  12  77 W15       30.12R WCI   4
NEWTON *       CLOUDY    19  12  73 W16       30.13S WCI   5
PELLA *        MOCLDY    22  13  69 NW9       30.16R WCI  12
PERRY *          N/A     18  13  82 W15G21    30.16S WCI   4
$$

IAZ004>006-015-016-023>025-035-036-071200-
   NORTH CENTRAL IOWA

CITY           SKY/WX    TMP DP  RH WIND       PRES   REMARKS
ALGONA *       CLEAR     14   9  79 W21G26    30.08R WCI  -4
CLARION *      CLOUDY    14   9  79 W21       30.11R WCI  -4
ESTHERVILLE    CLEAR     11   6  81 W18G28    30.07R WCI  -7
FORT DODGE *   CLOUDY    14   7  73 W13       30.14R WCI   0
MASON CITY     CLEAR     13   7  77 W21       30.06R WCI  -5
WEBSTER CITY * CLOUDY    16  10  79 W15       30.12R WCI   1
IOWA FALLS *     N/A     17  12  82 W16       30.11R WCI   1
$$

IAZ007>011-017>019-026>030-037>042-050>054-066-071200-
   NORTHEAST IOWA

CITY           SKY/WX    TMP DP  RH WIND       PRES   REMARKS
CEDAR RAPIDS   MOCLDY    19  15  84 W17       30.10R WCI   4
CHARLES CITY * CLOUDY    16   9  73 W16       30.06R WCI   0
CLINTON *      CLOUDY    22  17  81 W20G25    30.08F WCI   7
DECORAH *      CLOUDY    14  10  85 W13G21    30.01R WCI   0
DUBUQUE        FLURRIES  19  13  77 W17G25    30.04S WCI   4
MONTICELLO *   CLOUDY    19  14  79 W15G22    30.08S WCI   5
OELWEIN *      MOCLDY    16  12  86 W14       30.07R WCI   1
WATERLOO       PTCLDY    17  10  74 W20G25    30.10R WCI   1
$$

IAZ064-065-067-068-078-071200-
   EAST CENTRAL IOWA

CITY           SKY/WX    TMP DP  RH WIND       PRES   REMARKS
DAVENPORT      CLOUDY    23  15  71 W17       30.09F WCI   9
IOWA CITY      MOCLDY    23  14  68 NW13      30.14R WCI  11
MUSCATINE *    CLOUDY    25  16  68 W13       30.13S WCI  13
QUAD CITIES    CLOUDY    25  14  63 W15G26    30.10S WCI  13
$$

IAZ062-063-075>077-085>089-095>099-071200-
   SOUTHEAST IOWA

CITY           SKY/WX    TMP DP  RH WIND       PRES   REMARKS
BURLINGTON     CLOUDY    26  16  65 W7        30.13S WCI  18
FAIRFIELD *    CLOUDY    25  14  63 W10       30.13S WCI  15
FORT MADISON * MOCLDY    27  18  69 W8        30.15R WCI  18
KEOKUK *       CLOUDY    28  16  59 NW7       30.15S WCI  21
OSKALOOSA *      N/A     23  16  76 W9        30.14S WCI  13
CENTERVILLE *    N/A     25  16  68 W10       30.16S WCI  15
OTTUMWA        CLOUDY    24  13  62 W12       30.13S WCI  13
WASHINGTON *   CLOUDY    25  16  68 W12G18    30.13F WCI  14
$$

ABBREVIATIONS USED IN REMARKS
   TC - TEMPERATURES IN CELSIUS
  WCI - WIND CHILL INDEX
   HX - HEAT INDEX
  VSB - VISIBILITY
$$





USA.gov is the U.S. government's official web portal to all federal, state and local government web resources and services.